Location: Brede
(50.9167°N, 0.6000°E)
Time: 09:50:12
(UTC+00:00)

Tiros 1 - Pass Details

Date: 02 December 2020
Orbit: 630 x 663 km, 48.4° (Epoch: 16 January)

Event Time Altitude Azimuth Distance (km) Brightness Sun altitude
Rises 16:26:45 0° 261° (W) 2,994 12.2 -5.2°
Reaches altitude 10° 16:29:07 10° 258° (WSW) 2,080 11.3 -5.5°
Maximum altitude 16:33:52 66° 177° (S) 724 7.6 -6.2°
Drops below altitude 10° 16:38:36 10° 96° (E) 2,068 9.2 -6.9°
Enters shadow 16:39:51 - 95° (E) 2,549 9.7 -7.0°
